sat.trackr.live / text

‹ back to catalog

STARLINK-35634

NORAD 66173 · 2025-240AD

PAYLOAD ACTIVE UNKNOWN

§ Identity

Operator
Country
US
Launch date
2025-10-25
Launch site
AFWTR
Launch vehicle
Mass (kg)
RCS (m²)

Purposes: comms

External: N2YO · Heavens-Above · Gunter

§ Orbital elements

Epoch: 2026-09-20T08:41:45.636000Z

Period
93.85 min
Inclination
53.1571°
Eccentricity
0.0001133
Mean motion
15.34395419 rev/d
Perigee alt
461.9 km
Apogee alt
463.5 km
Semi-major
6,840.9 km
B*
3.1561e-4
RAAN
234.3178°
Arg perigee
100.3231°
Mean anomaly
259.7900°
Rev number
5,185

§ Raw data

STARLINK-356341 66173U 25240AD  26263.36233375  .00010300  00000+0  31561-3 0  99992 66173  53.1571 234.3178 0001133 100.3231 259.7900 15.34395419 51858

JSON: /api/v1/satellites/66173 · /tle

For live sub-satellite position, see the globe view (requires WebGL).

§ Visibility from observer

Set your observer location to see the next 7 days of passes ≥ 10°. The values pass through the URL so the page stays shareable.

No JS? Fill the form by hand. The geolocation button needs JavaScript.